Вернуться в каталог

INTELSAT 33E DEB

АктивенMEO
NORAD 61990·DEBRIS· XX

Запущен Aug 24, 2016 с Guiana Space Centre

Loading…

Ближайшие Пролёты (ближайшие 24 часа)

TLE

СвежийSource: Space-Track

Эпоха: Sep 13, 2026, 08:20 UTC

1 61990U 16053G   26256.34772299 -.00000252  00000-0  00000-0 0  9994
2 61990   1.6819  75.2504 0114228 347.0838  13.4554  1.01392814  7048

Отслеживайте INTELSAT 33E DEB в реальном времени с AllMySat

Download on the App Store